CW2969 Weather Reports


time (UTC)temp
F
wind
direction
speed
knots
gust
knots
rain 1hr
in
rain 24hr
in
rain mn
in
humidity
%
barometer
mb
20260831215018 99 127 1.7 6.1 0.00 0.00 0.00 39 1011.9
20260831214019 100 94 5.2 7.0 0.00 0.00 0.00 39 1012.2
20260831213518 100 136 7.0 7.0 0.00 0.00 0.00 39 1012.3
20260831213018 100 142 0.9 3.5 0.00 0.00 0.00 39 1012.3
20260831212518 100 296 3.5 3.5 0.00 0.00 0.00 40 1012.3
20260831212018 99 128 0.9 2.6 0.00 0.00 0.00 40 1012.3
20260831211518 99 234 0.9 3.5 0.00 0.00 0.00 40 1012.4
20260831211018 98 307 0.9 8.7 0.00 0.00 0.00 41 1012.5
20260831210018 98 99 2.6 2.6 0.00 0.00 0.00 41 1012.5
20260831205518 98 147 0.9 6.1 0.00 0.00 0.00 41 1012.7
20260831205018 98 179 1.7 7.8 0.00 0.00 0.00 42 1012.9
20260831204518 98 99 7.8 7.8 0.00 0.00 0.00 41 1012.9
20260831204018 98 169 5.2 6.1 0.00 0.00 0.00 41 1013.0
20260831203518 98 218 2.6 6.1 0.00 0.00 0.00 42 1013.3
20260831203018 98 111 1.7 5.2 0.00 0.00 0.00 42 1013.4
20260831202018 97 118 0.9 4.3 0.00 0.00 0.00 45 1013.5
20260831201517 97 188 0.9 7.8 0.00 0.00 0.00 45 1013.6
20260831200517 97 33 0.9 6.1 0.00 0.00 0.00 45 1013.7
20260831200017 97 82 4.3 6.1 0.00 0.00 0.00 45 1013.8
20260831195517 97 185 1.7 4.3 0.00 0.00 0.00 45 1014.0
20260831195017 97 155 3.5 3.5 0.00 0.00 0.00 46 1014.1
20260831194517 97 90 1.7 2.6 0.00 0.00 0.00 46 1014.1
20260831193517 96 113 0.9 4.3 0.00 0.00 0.00 48 1014.2
20260831193017 96 115 3.5 5.2 0.00 0.00 0.00 48 1014.2
20260831192517 96 104 5.2 5.2 0.00 0.00 0.00 48 1014.3
20260831192017 96 190 0.9 3.5 0.00 0.00 0.00 48 1014.3
20260831191516 96 226 3.5 5.2 0.00 0.00 0.00 49 1014.3
20260831191016 96 105 3.5 9.6 0.00 0.00 0.00 49 1014.5
20260831190016 96 165 1.7 7.0 0.00 0.00 0.00 51 1014.6
20260831185517 95 189 2.6 9.6 0.00 0.00 0.00 51 1014.8
20260831185016 95 89 7.8 9.6 0.00 0.00 0.00 51 1014.8
20260831184516 95 130 6.1 6.1 0.00 0.00 0.00 52 1014.9
20260831183516 95 110 3.5 6.1 0.00 0.00 0.00 52 1014.9
20260831183016 94 281 2.6 4.3 0.00 0.00 0.00 53 1014.9
20260831182516 94 130 4.3 5.2 0.00 0.00 0.00 55 1015.0
20260831182016 94 223 0.9 9.6 0.00 0.00 0.00 55 1015.0
20260831181516 93 98 6.1 9.6 0.00 0.00 0.00 55 1015.0
20260831181016 93 97 2.6 7.0 0.00 0.00 0.00 56 1015.0
20260831180516 93 95 3.5 7.0 0.00 0.00 0.00 56 1015.1
20260831180015 93 290 4.3 7.0 0.00 0.00 0.00 57 1015.2
20260831175515 93 296 1.7 7.8 0.00 0.00 0.00 59 1015.2
20260831175016 92 125 3.5 7.8 0.00 0.00 0.00 59 1015.4
20260831174515 92 334 2.6 5.2 0.00 0.00 0.00 60 1015.5
20260831173515 92 103 3.5 7.0 0.00 0.00 0.00 61 1015.7
20260831173015 92 180 1.7 4.3 0.00 0.00 0.00 62 1015.9
20260831172515 92 144 0.0 6.1 0.00 0.00 0.00 61 1015.8
20260831172015 91 159 3.5 6.1 0.00 0.00 0.00 63 1015.8
20260831171515 91 113 0.9 8.7 0.00 0.00 0.00 64 1015.9
20260831171015 90 130 7.0 8.7 0.00 0.00 0.00 64 1015.9
20260831170015 89 150 3.5 4.3 0.00 0.00 0.00 67 1016.0
20260831165515 89 167 2.6 2.6 0.00 0.00 0.00 68 1016.0
20260831164515 88 318 0.9 3.5 0.00 0.00 0.00 68 1016.1
20260831164014 88 287 1.7 3.5 0.00 0.00 0.00 69 1016.1
20260831163514 88 138 0.0 1.7 0.00 0.00 0.00 69 1016.0
20260831162514 88 148 2.6 6.1 0.00 0.00 0.00 70 1016.1
20260831162022 88 313 0.9 2.6 0.00 0.00 0.00 70 1016.1
20260831161514 88 189 0.0 2.6 0.00 0.00 0.00 71 1016.1
20260831161014 88 166 0.9 3.5 0.00 0.00 0.00 70 1016.1
20260831160015 88 142 1.7 5.2 0.00 0.00 0.00 71 1016.0
20260831155514 88 135 1.7 6.1 0.00 0.00 0.00 71 1016.2
20260831155014 88 174 2.6 7.8 0.00 0.00 0.00 71 1016.2
20260831154514 88 190 1.7 7.8 0.00 0.00 0.00 71 1016.0
20260831154014 87 281 1.7 8.7 0.00 0.00 0.00 72 1015.9
20260831153514 87 93 6.1 8.7 0.00 0.00 0.00 73 1015.9
20260831152514 87 181 2.6 5.2 0.00 0.00 0.00 74 1015.9
20260831152014 86 123 0.9 4.3 0.00 0.00 0.00 74 1015.9
20260831150514 86 115 6.1 8.7 0.00 0.00 0.00 75 1015.9
20260831150014 85 111 5.2 6.1 0.00 0.00 0.00 77 1015.9
20260831145514 84 238 3.5 7.0 0.00 0.00 0.00 77 1015.8
20260831145014 84 130 2.6 7.0 0.00 0.00 0.00 78 1015.8
20260831144513 84 140 2.6 4.3 0.00 0.00 0.00 78 1015.7
20260831143517 83 123 7.0 7.0 0.00 0.00 0.00 79 1015.7
20260831142513 83 140 1.7 3.5 0.00 0.00 0.00 79 1015.7
20260831142013 83 142 0.0 3.5 0.00 0.00 0.00 79 1015.7
20260831141513 83 144 0.0 3.5 0.00 0.00 0.00 80 1015.7
20260831141014 83 153 0.0 6.1 0.00 0.00 0.00 80 1015.6
20260831140513 83 142 0.9 6.1 0.00 0.00 0.00 80 1015.6
20260831140013 83 248 0.9 3.5 0.00 0.00 0.00 80 1015.6
20260831135513 82 126 3.5 3.5 0.00 0.00 0.00 80 1015.6
20260831134513 82 140 0.0 1.7 0.00 0.00 0.00 81 1015.4
20260831134013 82 175 1.7 1.7 0.00 0.00 0.00 81 1015.3
20260831133513 81 107 0.0 0.9 0.00 0.00 0.00 81 1015.2
20260831133013 81 119 0.0 0.0 0.00 0.00 0.00 81 1015.2
20260831132513 81 116 0.0 0.0 0.00 0.00 0.00 81 1015.2
20260831132013 80 294 0.0 0.9 0.00 0.00 0.00 81 1015.2
20260831131513 80 150 0.0 1.7 0.00 0.00 0.00 81 1015.2
20260831131013 80 224 0.0 2.6 0.00 0.00 0.00 81 1015.1
20260831130013 80 144 1.7 3.5 0.00 0.00 0.00 81 1015.1
20260831125013 79 140 0.0 0.9 0.00 0.00 0.00 82 1014.9
20260831124512 79 140 0.0 1.7 0.00 0.00 0.00 82 1014.9
20260831124013 79 149 0.9 1.7 0.00 0.00 0.00 82 1014.8
20260831123512 79 176 0.0 0.0 0.00 0.00 0.00 82 1014.8
20260831123012 79 148 0.0 0.9 0.00 0.00 0.00 82 1014.9
20260831122512 79 205 0.0 0.9 0.00 0.00 0.00 82 1014.8
20260831122012 79 199 0.0 0.9 0.00 0.00 0.00 82 1014.7
20260831121512 79 184 0.0 1.7 0.00 0.00 0.00 82 1014.6
20260831121012 79 226 0.9 1.7 0.00 0.00 0.00 82 1014.6
20260831120512 79 178 0.0 0.0 0.00 0.00 0.00 82 1014.6
20260831120012 79 178 0.0 0.0 0.00 0.00 0.00 82 1014.6
20260831115512 79 205 0.0 0.0 0.00 0.00 0.00 81 1014.5
20260831115012 79 205 0.0 0.0 0.00 0.00 0.00 81 1014.6
20260831114512 79 205 0.0 0.0 0.00 0.00 0.00 82 1014.6
20260831114012 79 205 0.0 0.0 0.00 0.00 0.00 82 1014.7
20260831113511 79 148 0.0 0.0 0.00 0.00 0.00 81 1014.8
20260831113012 79 148 0.0 0.0 0.00 0.00 0.00 81 1014.8
20260831112512 79 148 0.0 1.7 0.00 0.00 0.00 81 1014.7
20260831111511 80 169 0.0 2.6 0.00 0.00 0.00 81 1014.7
20260831111011 80 166 0.0 2.6 0.00 0.00 0.00 81 1014.7
20260831110511 80 136 2.6 2.6 0.00 0.00 0.00 81 1014.7
20260831110011 80 136 1.7 2.6 0.00 0.00 0.00 81 1014.7
20260831105511 80 140 1.7 1.7 0.00 0.00 0.00 81 1014.7
20260831105011 80 140 0.0 1.7 0.00 0.00 0.00 81 1014.6
20260831104011 80 233 0.0 0.0 0.00 0.00 0.00 81 1014.5
20260831103511 80 149 0.0 0.0 0.00 0.00 0.00 81 1014.6
20260831103011 80 206 0.0 0.0 0.00 0.00 0.00 81 1014.5
20260831102511 80 153 0.0 0.0 0.00 0.00 0.00 81 1014.6
20260831102011 80 153 0.0 0.0 0.00 0.00 0.00 81 1014.5
20260831101511 80 153 0.0 0.0 0.00 0.00 0.00 81 1014.5
20260831101011 80 254 0.0 1.7 0.00 0.00 0.00 81 1014.6
20260831100511 80 136 0.0 2.6 0.00 0.00 0.00 81 1014.6
20260831095011 80 103 0.0 2.6 0.00 0.00 0.00 81 1014.7
20260831094511 80 134 0.9 2.6 0.00 0.00 0.00 80 1014.7
20260831094011 80 134 0.0 1.7 0.00 0.00 0.00 80 1014.6
20260831093511 80 182 1.7 1.7 0.00 0.00 0.00 80 1014.7
20260831093011 80 157 0.0 0.9 0.00 0.00 0.00 80 1014.7
20260831092511 80 145 0.0 3.5 0.00 0.00 0.00 80 1014.6
20260831092011 80 148 2.6 3.5 0.00 0.00 0.00 80 1014.5
20260831091510 80 182 0.9 0.9 0.00 0.00 0.00 80 1014.4
20260831091011 81 187 0.9 1.7 0.00 0.00 0.00 80 1014.4
20260831090510 81 216 0.9 3.5 0.00 0.00 0.00 80 1014.4
20260831090010 81 262 0.9 3.5 0.00 0.00 0.00 80 1014.4
20260831085010 81 180 2.6 3.5 0.00 0.00 0.00 80 1014.5
20260831084510 81 200 2.6 8.7 0.00 0.00 0.00 80 1014.5
20260831083510 81 220 0.9 6.1 0.00 0.00 0.00 79 1014.5
20260831083010 81 127 0.9 6.1 0.00 0.00 0.00 79 1014.5
20260831082510 81 138 3.5 6.1 0.00 0.00 0.00 79 1014.6
20260831082010 81 108 1.7 7.8 0.00 0.00 0.00 79 1014.6
20260831081510 81 223 4.3 7.8 0.00 0.00 0.00 78 1014.7
20260831081010 81 128 0.9 3.5 0.00 0.00 0.00 78 1014.6
20260831080510 81 132 3.5 3.5 0.00 0.00 0.00 78 1014.6
20260831080010 81 139 2.6 3.5 0.00 0.00 0.00 77 1014.6
20260831075510 81 167 0.9 3.5 0.00 0.00 0.00 77 1014.5
20260831075010 81 263 1.7 1.7 0.00 0.00 0.00 77 1014.5
20260831074509 81 134 0.0 3.5 0.00 0.00 0.00 77 1014.6
20260831074009 81 180 1.7 3.5 0.00 0.00 0.00 76 1014.6
20260831073509 82 136 0.9 1.7 0.00 0.00 0.00 76 1014.7
20260831073009 82 136 0.9 2.6 0.00 0.00 0.00 76 1014.7
20260831072509 82 126 2.6 2.6 0.00 0.00 0.00 75 1014.6
20260831071509 82 207 0.0 3.5 0.00 0.00 0.00 75 1014.6
20260831071009 82 170 0.9 3.5 0.00 0.00 0.00 74 1014.6
20260831070009 82 157 2.6 3.5 0.00 0.00 0.00 74 1014.7
20260831065509 82 91 0.0 4.3 0.00 0.00 0.00 73 1014.7
20260831065009 83 208 0.9 4.3 0.00 0.00 0.00 73 1014.7
20260831064509 83 133 2.6 5.2 0.00 0.00 0.00 73 1014.7
20260831063008 83 121 0.9 2.6 0.00 0.00 0.00 71 1014.8
20260831062508 83 150 0.0 1.7 0.00 0.00 0.00 71 1014.9
20260831062008 83 293 0.9 2.6 0.00 0.00 0.00 70 1014.7
20260831061508 84 112 1.7 5.2 0.00 0.00 0.00 70 1014.8
20260831061008 84 213 2.6 5.2 0.00 0.00 0.00 70 1014.7
20260831060508 84 243 2.6 4.3 0.00 0.00 0.00 70 1014.7
20260831060008 84 207 1.7 3.5 0.00 0.00 0.00 69 1014.7
20260831055508 84 127 0.9 4.3 0.00 0.00 0.00 69 1014.5
20260831055008 84 154 1.7 9.6 0.00 0.00 0.00 68 1014.5
20260831054508 85 142 2.6 9.6 0.00 0.00 0.00 68 1014.5
20260831053508 85 196 1.7 4.3 0.00 0.00 0.00 66 1014.4
20260831052008 86 127 1.7 2.6 0.00 0.00 0.00 65 1014.4
20260831051007 86 171 0.9 7.0 0.00 0.00 0.00 65 1014.2
20260831050037 86 196 0.9 4.3 0.00 0.00 0.00 64 1014.2
20260831045508 86 167 4.3 4.3 0.00 0.00 0.00 63 1014.0
20260831045007 86 155 0.0 2.6 0.00 0.00 0.00 62 1014.0
20260831044507 87 192 0.0 3.5 0.00 0.00 0.00 62 1014.1
20260831044007 87 181 2.6 4.3 0.00 0.00 0.00 62 1014.1
20260831042507 87 123 0.0 2.6 0.00 0.00 0.00 60 1013.9
20260831042007 87 103 2.6 4.3 0.00 0.00 0.00 60 1014.0
20260831041507 88 126 0.0 8.7 0.00 0.00 0.00 59 1014.2
20260831041007 88 157 0.9 8.7 0.00 0.00 0.00 59 1014.2
20260831040007 88 169 0.0 1.7 0.00 0.00 0.00 58 1014.2
20260831035507 88 119 1.7 6.1 0.00 0.00 0.00 57 1013.9
20260831034507 89 213 2.6 5.2 0.00 0.00 0.00 57 1013.8
20260831034006 89 265 1.7 7.0 0.00 0.00 0.00 56 1013.7
20260831033507 89 121 2.6 8.7 0.00 0.00 0.00 56 1013.7
20260831033006 89 163 5.2 8.7 0.00 0.00 0.00 56 1013.6
20260831032507 89 238 0.9 5.2 0.00 0.00 0.00 55 1013.6
20260831032006 90 121 4.3 5.2 0.00 0.00 0.00 55 1013.7
20260831031506 90 155 5.2 6.1 0.00 0.00 0.00 55 1013.6
20260831031006 90 136 1.7 6.1 0.00 0.00 0.00 54 1013.5
20260831030507 90 111 2.6 7.8 0.00 0.00 0.00 54 1013.4
20260831030006 90 132 3.5 7.8 0.00 0.00 0.00 54 1013.3
20260831025506 90 223 1.7 3.5 0.00 0.00 0.00 54 1013.1
20260831025006 91 107 2.6 10.4 0.00 0.00 0.00 53 1013.0
20260831024506 91 102 3.5 10.4 0.00 0.00 0.00 53 1012.9
20260831024006 91 84 2.6 3.5 0.00 0.00 0.00 53 1012.8
20260831023506 91 101 0.0 5.2 0.00 0.00 0.00 53 1012.7
20260831023006 91 119 4.3 8.7 0.00 0.00 0.00 52 1012.7
20260831022506 91 95 8.7 8.7 0.00 0.00 0.00 52 1012.5
20260831022006 92 174 2.6 8.7 0.00 0.00 0.00 52 1012.4
20260831021506 92 112 2.6 6.1 0.00 0.00 0.00 51 1012.3
20260831021006 92 126 6.1 7.0 0.00 0.00 0.00 51 1012.3
20260831020505 92 263 1.7 10.4 0.00 0.00 0.00 51 1012.3
20260831015506 93 144 1.7 5.2 0.00 0.00 0.00 49 1012.1
20260831015006 93 127 0.0 6.1 0.00 0.00 0.00 48 1012.0
20260831014505 93 123 2.6 13.0 0.00 0.00 0.00 47 1012.0
20260831013505 94 126 1.7 10.4 0.00 0.00 0.00 46 1011.8
20260831013005 94 128 3.5 13.0 0.00 0.00 0.00 45 1011.8
20260831012505 95 130 7.0 13.0 0.00 0.00 0.00 45 1011.7
20260831012005 95 169 3.5 8.7 0.00 0.00 0.00 42 1011.6
20260831011505 95 126 3.5 7.0 0.00 0.00 0.00 40 1011.4
20260831011005 96 149 0.9 2.6 0.00 0.00 0.00 40 1011.3
20260831010505 96 115 0.9 1.7 0.00 0.00 0.00 40 1011.3
20260831010005 96 96 1.7 5.2 0.00 0.00 0.00 40 1011.3
20260831005505 96 131 1.7 5.2 0.00 0.00 0.00 40 1011.2
20260831005005 96 136 1.7 5.2 0.00 0.00 0.00 40 1011.2
20260831004505 97 101 1.7 5.2 0.00 0.00 0.00 39 1011.2
20260831004005 97 133 1.7 4.3 0.00 0.00 0.00 39 1011.2
20260831003004 97 186 1.7 1.7 0.00 0.00 0.00 39 1011.2
20260831002005 98 159 0.9 3.5 0.00 0.00 0.00 39 1011.1
20260831001505 98 104 0.0 6.1 0.00 0.00 0.00 39 1011.1
20260831001005 98 133 3.5 6.1 0.00 0.00 0.00 39 1011.0
20260831000504 98 235 2.6 4.3 0.00 0.00 0.00 39 1011.0
20260831000034 98 128 0.9 4.3 0.00 0.00 0.00 39 1011.0
20260830235504 98 124 1.7 7.8 0.00 0.00 0.00 39 1011.1
20260830234504 98 243 0.0 4.3 0.00 0.00 0.00 38 1011.2
20260830232534 99 107 1.7 7.8 0.00 0.00 0.00 38 1011.2
20260830231534 99 91 1.7 9.6 0.00 0.00 0.00 38 1011.2
20260830231033 99 97 2.6 6.1 0.00 0.00 0.00 38 1011.2
20260830230533 99 92 1.7 7.8 0.00 0.00 0.00 37 1011.1
20260830230033 99 125 7.8 7.8 0.00 0.00 0.00 38 1011.1
20260830225533 100 121 1.7 5.2 0.00 0.00 0.00 38 1011.2
20260830225033 99 195 1.7 5.2 0.00 0.00 0.00 38 1011.2
20260830224533 99 291 0.9 7.8 0.00 0.00 0.00 38 1011.3
20260830224033 99 119 0.9 7.8 0.00 0.00 0.00 38 1011.3
20260830223033 99 107 0.9 7.8 0.00 0.00 0.00 38 1011.3
20260830222533 99 149 0.0 7.8 0.00 0.00 0.00 38 1011.3
20260830222033 99 121 1.7 3.5 0.00 0.00 0.00 39 1011.3
20260830221533 98 105 2.6 7.0 0.00 0.00 0.00 39 1011.4
20260830221033 98 132 7.0 7.0 0.00 0.00 0.00 39 1011.4
20260830220533 98 155 3.5 6.1 0.00 0.00 0.00 40 1011.4
20260830220032 98 142 0.9 6.1 0.00 0.00 0.00 40 1011.5
20260830215533 98 142 5.2 7.0 0.00 0.00 0.00 41 1011.5